Theta_e
282 282 283 283 283 283 282 282 283 282 281 280 280 280 280 280 281 280 280 279 281 282 280 281 280 279 279 279 279 279 280 280 281 280 281 282 282 282 282 283 283 282 283 283 283 283 284 284 284 284 285 284 285 285 286 286 285 285 285 286 285 286
282 282 283 283 283 283 282 282 281 281 281 281 280 279 279 279 280 279 280 280 279 280 279 279 280 280 280 279 279 278 278 279 279 279 280 281 281 281 281 282 283 284 284 284 283 283 284 284 284 284 284 284 284 284 285 285 284 284 285 285 285 285
281 282 282 282 282 282 282 281 282 282 281 280 280 280 280 279 280 279 279 280 281 280 280 279 279 279 279 278 279 278 278 278 279 279 279 279 280 280 281 281 282 283 283 284 284 284 284 284 284 285 285 284 284 284 284 284 284 284 284 284 284 285
282 281 282 281 282 283 283 283 282 281 281 281 281 280 280 280 280 280 279 279 279 278 277 277 278 278 279 278 278 277 278 278 278 278 278 278 279 279 280 280 281 281 282 282 283 283 284 284 284 284 284 284 284 284 285 285 284 284 284 284 284 285
281 281 281 281 281 281 281 282 282 281 281 281 280 280 279 280 281 280 280 279 279 278 278 277 277 277 277 278 279 278 278 277 278 278 278 278 279 279 279 280 280 280 280 280 281 282 282 283 283 284 284 284 284 284 284 285 284 284 284 284 284 285
279 279 279 280 280 280 281 280 280 281 281 281 279 279 279 279 279 278 278 278 277 277 277 276 277 277 277 277 278 278 278 278 278 278 278 278 278 278 279 279 279 280 279 280 280 280 280 281 282 282 283 283 283 284 284 284 284 284 284 284 284 284
279 279 279 279 279 280 280 280 280 280 280 279 280 280 278 278 278 278 277 277 276 276 276 276 276 276 276 276 277 277 278 278 278 278 277 277 277 278 278 278 278 279 279 279 279 280 280 280 281 281 281 282 283 283 283 283 284 284 284 284 284 285
278 278 278 278 278 279 279 279 279 279 279 279 279 279 279 279 278 277 277 276 277 277 276 276 277 277 277 277 277 277 277 278 277 277 277 277 277 277 277 277 278 278 278 279 279 280 280 280 280 280 280 281 282 282 283 283 283 283 284 284 284 284
278 278 277 278 278 277 278 278 278 278 278 278 278 277 278 278 278 278 277 276 276 277 277 277 277 277 277 277 277 277 278 277 277 277 277 277 276 276 276 276 277 277 278 278 279 279 280 280 280 280 280 280 281 281 282 282 283 283 283 283 283 284
277 277 278 278 278 278 278 278 279 280 280 280 279 278 278 279 278 278 278 277 277 276 277 276 276 277 277 277 277 277 277 277 277 277 277 276 276 276 276 276 276 276 277 277 278 278 279 279 279 279 279 280 280 280 281 281 282 282 283 283 283 283
278 278 278 278 278 278 279 279 278 278 278 278 277 278 279 278 278 277 277 277 276 276 276 276 276 276 276 276 276 277 277 277 277 277 277 277 276 277 276 276 276 276 276 276 276 277 277 278 278 279 280 280 280 280 280 280 281 281 282 282 282 283
278 278 278 278 278 278 278 278 278 278 279 279 278 278 278 278 277 277 276 276 276 277 277 277 277 277 276 277 277 277 277 277 277 277 276 276 276 276 276 276 276 275 275 275 275 275 276 276 277 280 282 283 282 281 281 281 281 281 282 282 282 282
278 278 278 278 279 279 279 279 279 279 278 278 277 278 277 278 277 276 275 276 276 276 277 277 277 277 277 277 277 277 276 277 277 276 276 276 276 276 275 275 275 275 275 274 274 274 275 275 276 280 282 283 284 282 281 281 281 281 281 281 281 281
278 278 278 279 279 279 279 279 279 278 279 277 277 277 277 276 275 276 276 275 276 276 276 277 276 276 277 276 276 276 275 275 275 275 275 275 275 275 275 275 275 275 274 274 274 274 274 274 278 280 281 281 282 282 281 281 281 281 281 281 280 281
278 279 279 278 279 279 279 280 278 278 277 277 277 276 275 275 275 275 275 275 275 275 276 275 275 275 275 275 275 274 274 274 274 274 274 273 273 274 273 274 274 274 274 274 273 273 273 273 277 279 280 280 281 282 281 279 280 280 280 280 280 280
278 279 279 279 279 279 279 277 277 277 276 277 275 274 275 274 274 274 274 274 274 274 274 274 273 273 273 273 273 273 273 272 272 272 272 272 273 272 272 272 272 272 272 273 272 272 273 273 276 278 279 280 281 281 281 278 278 279 279 280 280 280
277 277 276 277 277 278 278 278 278 277 276 274 274 274 274 274 273 273 274 274 274 273 272 273 272 271 271 271 271 271 270 270 271 271 271 271 271 271 270 270 270 271 271 271 272 271 271 272 276 278 278 279 280 281 280 277 277 277 278 278 279 279
277 277 277 278 278 277 277 276 276 275 274 274 273 273 272 272 272 272 272 271 272 271 272 270 270 269 269 269 269 269 269 269 269 268 269 269 269 269 269 269 270 269 269 270 270 270 269 270 275 276 277 278 279 279 276 275 275 275 275 276 277 278
277 277 278 277 276 276 275 274 274 274 272 272 272 270 270 270 269 270 270 270 270 269 269 269 268 268 267 267 267 267 266 267 267 267 267 266 266 266 266 267 267 268 268 267 268 267 268 268 272 275 276 276 277 276 273 273 273 273 273 274 275 276
277 277 277 275 274 274 273 273 273 271 271 270 270 268 269 267 268 269 268 268 267 267 267 267 266 266 266 265 264 264 265 265 265 264 265 264 264 264 265 265 265 266 266 266 266 266 266 266 270 273 273 274 275 274 271 271 271 271 272 272 274 274
277 276 275 274 273 272 272 271 270 270 269 269 269 268 267 267 268 267 266 267 267 266 265 265 264 264 264 263 263 263 263 263 263 263 264 263 263 263 264 264 263 263 264 264 264 267 266 264 266 270 271 272 273 271 270 270 270 270 270 271 272 273
276 274 273 272 272 271 270 269 269 267 268 268 268 266 265 267 266 266 266 265 265 264 263 263 263 262 262 262 262 262 262 262 262 262 262 262 262 262 262 262 262 262 262 263 263 263 263 263 264 266 270 271 272 273 270 269 269 268 269 270 270 270
275 273 272 271 271 270 269 268 267 266 266 267 266 264 266 266 265 265 264 264 263 262 262 261 261 261 261 261 261 261 261 261 261 261 261 261 261 261 261 260 261 261 261 262 262 262 263 263 263 264 270 271 271 272 271 268 269 269 269 269 270 270
272 271 270 269 269 268 267 265 265 265 265 264 263 264 265 264 264 263 261 261 261 260 260 259 260 260 260 260 260 260 260 260 261 260 260 260 260 259 259 260 260 260 260 261 261 261 262 264 266 264 267 270 271 271 272 268 268 269 269 268 269 269
270 269 268 268 267 267 266 263 263 262 263 262 263 264 263 263 262 261 261 260 259 259 259 259 259 259 259 259 259 259 259 259 259 259 260 259 259 259 258 259 259 259 259 260 260 261 261 262 263 267 265 269 270 271 272 272 271 272 270 268 267 267
268 267 267 267 266 264 264 262 261 261 261 262 263 263 261 260 260 260 259 258 258 258 258 258 258 258 258 258 259 258 258 258 259 259 259 259 259 258 258 258 259 258 258 258 259 260 261 261 262 265 268 267 270 271 272 272 273 273 269 268 267 267
266 265 265 265 263 264 262 261 260 260 260 262 261 260 260 259 258 258 257 257 257 257 258 258 258 258 258 258 258 258 258 258 258 258 258 258 258 258 257 257 258 257 257 258 258 259 260 260 261 261 264 268 269 271 272 272 272 272 272 268 267 268
262 262 263 263 262 262 262 260 260 258 260 261 260 259 259 258 257 257 257 257 257 257 257 257 258 258 258 258 258 258 258 258 258 258 258 258 257 257 257 257 257 257 257 257 258 258 259 260 261 261 262 264 266 267 269 271 272 271 272 271 269 272
261 261 261 261 261 260 260 259 259 260 260 258 260 259 257 256 256 257 257 256 257 257 257 257 257 258 258 258 258 258 258 258 258 257 257 257 257 256 257 257 257 257 257 258 258 259 260 261 262 262 263 263 263 263 264 265 265 269 270 267 266 268
261 260 260 260 261 260 259 258 257 258 257 257 258 256 255 256 256 256 256 256 256 257 257 257 258 258 257 257 257 257 257 257 257 257 257 256 257 256 257 257 258 258 259 260 260 261 262 262 263 263 264 264 264 264 265 265 265 265 265 265 266 266
260 259 259 259 260 258 257 257 258 257 258 258 257 256 255 256 256 256 255 256 256 256 257 257 257 257 257 257 257 257 257 257 257 257 258 259 260 260 260 260 262 263 263 263 263 263 263 263 264 265 269 268 271 269 269 268 268 268 267 269 271 269
259 258 258 258 259 257 256 256 258 258 258 257 256 255 255 256 256 255 255 256 256 256 257 257 257 256 256 256 256 256 257 260 265 263 261 261 265 268 269 269 265 265 265 265 266 266 264 264 265 271 273 273 273 273 273 273 274 275 272 273 275 273
259 258 256 257 257 256 255 256 257 256 257 257 257 256 255 255 255 256 256 256 256 257 257 257 256 256 256 256 257 256 256 256 258 264 266 267 267 268 269 270 271 271 271 267 265 267 271 272 272 273 273 273 273 273 273 274 275 275 275 276 272 270
257 257 256 256 256 255 255 255 256 256 256 256 255 255 255 254 255 255 256 256 256 257 257 257 256 256 256 256 257 256 256 256 256 257 263 266 267 268 269 269 270 270 271 271 270 268 266 269 272 272 272 272 273 273 274 275 275 275 275 276 276 270
257 257 256 255 255 255 255 255 256 256 256 256 255 255 254 254 255 255 255 256 256 257 257 257 256 256 256 256 256 256 256 256 256 255 256 259 265 267 268 268 269 269 270 270 271 271 270 271 271 272 271 272 273 274 274 275 275 275 275 275 271 269
256 256 255 254 254 254 254 255 255 256 256 255 255 255 254 254 254 255 255 256 256 256 256 256 256 256 256 256 256 256 256 256 256 256 256 257 257 259 262 266 267 268 269 269 270 270 271 271 272 272 273 273 273 274 274 275 272 275 276 274 270 269
255 254 255 256 256 255 254 255 255 255 255 255 254 254 254 254 255 255 256 257 257 256 256 256 256 256 256 256 256 256 256 257 257 258 257 257 256 256 257 257 259 264 268 265 267 269 271 271 271 272 272 273 273 274 274 274 270 268 269 269 269 269
254 254 255 255 254 253 254 255 255 256 255 254 253 253 253 255 255 255 255 256 256 256 256 256 256 256 256 256 256 257 258 258 258 257 257 257 257 257 257 258 259 260 264 268 269 269 270 270 271 272 273 273 273 274 274 268 267 267 267 268 269 269
Wind_Speed
3 3 2 2 3 4 4 4 5 5 4 4 4 5 5 4 4 4 4 2 2 1 2 2 3 3 4 3 4 4 5 6 6 6 5 6 7 7 8 8 8 8 9 7 8 8 9 8 8 6 6 5 6 6 6 6 6 6 7 7 7 7
4 4 3 3 4 4 4 4 4 4 4 4 4 3 4 4 4 4 4 2 1 3 2 3 2 3 2 2 2 4 3 4 4 5 5 6 6 6 6 7 7 8 9 9 9 9 8 8 8 7 7 7 6 6 6 7 5 6 7 8 7 6
3 3 3 4 3 3 3 4 3 1 2 3 2 3 3 4 4 4 4 3 3 3 3 3 4 4 3 4 2 3 3 3 3 4 3 4 6 5 6 5 6 7 7 8 8 8 9 9 9 8 7 7 7 7 6 6 6 6 7 7 8 7
2 3 3 3 4 2 2 1 2 1 1 0 1 1 1 1 1 3 4 4 4 5 4 4 4 4 5 5 4 4 4 3 4 4 4 4 4 4 6 6 5 5 7 6 7 8 8 9 9 9 8 8 8 7 6 6 7 7 8 6 8 8
4 4 4 3 2 2 2 1 1 0 0 1 1 1 1 0 0 1 2 3 3 4 4 3 3 4 4 5 5 5 5 4 4 4 3 4 5 4 5 6 6 6 6 6 6 6 7 8 8 8 8 9 8 8 8 7 7 7 8 8 9 9
4 4 4 4 3 2 2 3 3 1 0 0 1 2 1 2 1 1 2 2 3 3 3 3 3 4 4 4 4 5 5 4 4 4 4 4 4 6 6 5 6 6 7 7 7 7 7 8 8 8 8 9 9 9 9 9 8 8 8 8 9 8
4 5 5 4 3 3 2 4 4 3 1 1 1 0 0 1 0 1 1 1 3 4 4 4 3 4 4 4 4 4 4 4 4 4 4 4 5 5 7 8 6 7 7 7 8 8 8 8 8 8 9 9 9 9 9 9 9 9 9 9 9 8
5 5 5 4 4 4 3 3 3 3 3 2 2 1 0 0 0 1 2 3 4 5 5 5 6 6 6 6 6 5 5 5 4 5 4 4 5 5 5 6 6 6 8 8 8 8 9 8 8 8 9 9 10 10 9 9 9 10 10 10 9 9
4 5 5 5 5 4 4 4 4 4 4 3 3 3 1 1 0 0 2 3 4 5 6 6 6 6 6 7 7 7 7 7 6 5 6 5 5 6 7 6 7 7 7 9 9 9 10 10 9 9 10 10 9 9 10 10 10 10 9 9 10 9
5 5 5 5 5 5 3 3 3 2 2 2 2 2 1 1 1 0 1 1 3 4 5 5 4 5 6 6 6 7 7 8 8 8 7 6 7 7 7 8 8 8 7 9 9 9 9 11 12 11 11 10 10 10 10 10 11 11 11 10 10 10
6 6 5 5 5 4 4 4 4 3 3 3 3 1 2 1 0 1 1 1 3 4 4 4 4 4 5 5 6 7 7 7 7 8 9 8 8 8 8 8 9 10 11 10 9 11 10 11 11 10 10 11 12 11 12 12 13 13 13 12 12 11
6 6 5 5 5 6 5 4 4 4 4 4 3 1 3 1 1 2 3 4 4 5 5 5 6 6 6 7 8 8 8 8 9 9 9 10 9 8 9 9 10 10 11 13 13 12 11 11 10 12 21 19 14 13 12 12 13 13 13 14 14 13
6 6 6 7 7 7 7 6 6 5 4 4 4 3 3 0 1 2 3 4 4 5 7 8 8 8 9 9 9 9 9 10 9 10 11 11 10 10 10 10 11 12 12 13 13 15 13 12 12 23 25 25 26 18 14 14 13 13 14 13 14 15
8 8 9 9 8 7 6 6 6 5 5 4 3 3 1 1 2 2 2 3 4 5 7 7 8 9 10 9 9 9 8 8 10 11 11 11 11 11 10 12 13 13 13 12 13 14 15 14 18 27 26 27 27 24 17 14 14 14 14 14 15 14
9 10 10 8 7 6 8 8 5 5 4 3 3 2 2 2 2 2 3 4 4 5 6 7 7 8 9 8 8 7 8 10 11 11 10 10 9 10 12 14 14 14 14 14 15 15 16 15 21 27 28 27 27 28 23 14 15 16 15 16 16 16
7 8 8 8 8 7 4 4 4 3 3 2 2 3 2 2 3 2 4 5 5 5 5 6 6 7 7 6 7 8 9 9 10 9 8 9 11 12 13 14 15 15 15 15 15 15 16 17 21 28 28 27 28 28 25 16 16 17 17 17 17 16
5 5 4 4 2 3 5 2 1 2 4 3 3 3 3 3 3 5 5 6 5 5 5 6 5 6 6 6 7 8 9 9 10 11 10 10 12 13 13 14 15 15 15 15 14 14 16 16 27 29 30 29 30 30 25 16 15 15 16 17 17 17
5 5 3 2 4 3 3 3 3 5 3 3 3 3 3 4 4 5 5 5 5 5 5 4 6 7 8 9 9 9 10 10 10 11 10 10 11 11 12 13 13 15 16 15 14 15 17 18 29 29 30 31 30 31 19 13 14 14 15 17 18 18
3 3 5 4 4 5 4 3 4 4 3 3 3 4 3 3 4 4 4 4 4 4 5 6 7 9 9 9 10 11 11 11 12 11 8 11 12 13 13 13 13 13 15 16 15 15 16 17 23 28 29 29 32 26 16 15 15 14 16 17 16 16
5 4 7 7 6 4 3 3 4 3 3 4 4 3 3 3 4 4 4 4 4 5 5 6 6 8 9 9 10 12 12 11 10 10 9 11 13 14 13 12 14 14 13 14 15 13 15 17 22 30 30 32 32 27 19 14 14 16 16 17 17 14
7 7 6 7 6 3 3 4 4 5 3 2 2 2 3 4 4 3 4 4 4 5 5 4 5 7 8 10 11 10 12 12 11 11 10 10 11 13 12 12 13 13 12 10 13 22 23 18 22 29 29 30 30 24 16 15 14 15 16 15 15 15
7 6 6 6 5 3 4 4 4 3 2 1 1 2 4 4 3 3 4 5 5 4 4 4 6 7 8 10 11 10 10 10 11 11 11 11 10 12 12 12 12 15 14 11 11 12 14 15 16 19 29 28 28 28 18 14 13 15 17 17 17 17
5 7 6 5 3 3 3 4 4 3 1 1 2 4 3 3 3 4 4 5 5 4 5 5 5 8 9 8 10 11 10 9 10 11 11 12 12 11 12 12 12 13 14 10 10 11 11 11 15 16 25 27 27 28 24 13 14 13 13 13 15 14
7 7 5 3 4 4 4 4 3 1 2 2 4 4 3 4 4 4 4 5 5 5 5 5 6 6 8 8 8 10 11 9 10 10 11 11 12 14 14 13 12 13 13 11 10 11 11 13 21 17 22 26 28 27 28 18 15 17 15 16 15 17
5 5 4 3 4 4 3 4 3 2 2 4 5 3 4 4 5 5 5 6 6 6 6 6 6 8 6 8 9 10 12 10 10 11 10 12 13 14 14 13 12 12 13 11 9 9 10 10 12 22 20 25 28 28 27 29 24 28 20 16 18 17
5 4 3 3 3 3 4 5 3 2 3 6 3 3 4 4 4 5 6 6 6 7 7 6 7 7 7 8 9 9 10 11 10 10 9 10 11 12 13 11 11 12 12 12 10 8 9 10 11 16 24 23 28 28 29 29 30 30 20 18 16 17
5 4 2 2 3 4 4 4 3 4 5 4 3 4 5 5 5 6 7 7 7 7 7 7 7 8 7 7 7 9 9 10 9 10 9 9 11 11 12 12 11 12 13 13 13 12 10 10 10 11 16 26 28 30 31 31 32 31 32 22 16 17
3 3 2 1 2 3 3 2 1 4 6 4 3 4 4 5 6 7 7 7 7 8 8 10 9 7 7 7 6 7 8 9 10 10 10 10 11 11 11 13 11 12 11 13 12 12 12 11 10 12 12 14 19 22 28 33 32 32 32 31 26 32
1 1 0 0 0 1 1 1 2 4 4 4 4 4 5 5 6 8 7 8 8 8 8 9 9 9 7 6 7 6 7 8 8 9 10 11 12 12 11 12 12 12 12 12 12 12 12 12 11 11 11 11 12 12 15 17 18 25 28 22 18 21
0 0 1 1 1 0 1 2 3 4 4 4 4 4 4 5 5 7 8 8 8 8 7 8 9 10 9 8 7 8 8 7 8 9 11 12 12 12 13 12 13 13 13 13 12 13 12 10 9 9 11 12 12 12 12 12 13 13 12 14 15 16
0 1 1 1 1 1 2 3 4 4 4 4 4 4 5 6 6 6 7 7 7 8 7 7 8 8 9 10 8 7 7 9 10 11 12 11 10 11 12 13 13 12 13 12 13 13 14 11 11 9 17 20 25 22 17 13 11 10 10 14 21 18
1 1 1 2 1 1 2 4 5 4 5 4 4 4 5 7 7 6 7 6 7 8 8 8 8 8 9 9 10 10 8 9 19 17 14 13 20 28 29 25 17 16 14 13 11 10 14 14 15 29 35 33 32 32 33 30 30 29 24 26 33 25
0 1 2 3 1 2 3 4 5 5 5 5 5 4 5 6 7 7 7 7 7 9 10 9 9 8 8 9 9 9 11 11 9 18 27 26 26 26 28 28 31 32 31 22 17 17 30 33 35 34 34 35 34 34 33 31 29 30 30 31 22 15
1 2 3 2 3 4 4 5 6 5 5 5 5 5 5 5 5 7 8 8 8 10 9 8 9 9 9 9 8 9 10 11 13 12 16 24 25 26 28 28 29 30 29 31 28 23 17 24 31 34 35 35 35 32 31 30 31 31 31 30 30 17
1 1 2 3 4 4 4 6 7 5 5 5 5 5 5 5 5 7 8 8 9 9 10 9 9 9 9 9 10 10 10 11 12 14 15 14 21 27 27 27 27 28 28 29 29 31 28 28 31 35 34 33 33 32 30 31 33 32 32 34 19 11
1 1 3 4 4 5 5 7 8 6 6 5 5 5 5 5 6 6 7 8 9 10 9 9 8 9 9 9 9 10 10 11 11 13 13 14 14 16 21 25 26 26 27 28 29 30 30 30 32 33 33 33 32 31 30 29 23 29 31 26 15 11
1 3 4 4 5 4 5 8 8 6 5 5 5 5 5 5 6 6 8 13 11 7 8 8 9 9 9 9 9 10 11 11 11 11 12 12 13 14 14 15 19 24 28 24 23 26 30 30 31 31 31 33 32 31 30 29 16 14 13 14 12 11
2 4 4 4 4 4 6 9 7 5 5 5 5 5 5 6 6 7 7 7 8 8 7 8 8 8 9 9 10 10 11 11 11 12 11 12 12 12 13 14 14 14 21 32 28 29 28 29 30 30 31 30 30 29 28 14 10 11 11 12 12 11
Wind_Direction
168 160 148 135 116 122 103 68 52 43 44 52 65 53 42 29 24 21 14 28 10 23 10 29 14 20 30 17 22 20 18 6 360 358 347 347 349 348 350 347 345 345 340 345 338 337 337 334 334 333 330 323 309 300 294 292 290 286 283 280 278 273
174 160 138 113 102 93 92 80 60 54 55 60 52 42 30 27 20 14 9 341 9 336 352 345 350 5 13 16 40 25 19 358 355 346 351 341 333 340 342 343 341 340 340 338 339 335 334 333 327 332 329 329 317 306 303 290 291 288 281 282 278 274
128 106 108 103 81 79 82 94 91 92 63 58 78 82 26 30 2 12 354 350 349 7 352 341 356 355 347 356 5 18 358 349 348 341 322 335 341 335 335 334 333 330 329 328 331 332 331 332 328 328 327 324 319 313 300 298 294 285 280 276 280 276
106 75 68 70 67 50 71 112 90 49 80 205 95 91 136 60 354 10 349 354 349 360 345 347 0 6 1 353 343 344 345 344 339 323 343 343 318 336 323 324 324 324 324 326 323 326 325 324 325 323 327 322 318 312 308 302 297 291 286 281 278 275
153 146 132 131 156 204 215 198 147 199 293 339 350 71 314 177 253 38 19 10 1 348 343 351 357 5 354 359 338 334 327 328 327 323 338 323 322 323 319 314 318 315 317 314 312 316 319 318 316 316 318 315 312 307 304 298 292 286 286 284 276 276
164 147 166 177 193 208 213 202 201 199 40 2 18 10 317 335 18 38 42 24 6 346 353 340 325 2 339 355 329 324 311 316 323 318 329 318 326 324 315 316 311 315 313 313 309 311 310 310 308 309 307 304 302 301 299 297 292 285 277 274 276 276
180 188 187 183 193 184 149 150 169 159 154 142 128 225 259 284 299 62 29 55 14 1 2 346 341 342 336 328 315 307 300 304 307 307 304 313 316 315 318 319 322 316 314 308 306 306 306 302 299 298 298 296 294 291 290 289 288 284 280 274 271 270
188 177 178 184 185 175 171 172 170 178 186 205 205 200 275 279 248 40 43 26 17 357 353 341 346 341 338 333 328 323 309 304 307 302 298 298 303 303 300 301 306 305 304 305 301 298 293 291 288 285 285 285 286 286 284 284 282 281 279 279 275 270
200 198 198 189 193 192 186 179 190 191 193 213 224 220 206 222 194 303 38 17 11 352 339 339 333 329 328 328 324 323 325 321 317 315 309 307 301 304 308 307 306 305 301 300 300 296 295 294 289 286 284 282 277 273 277 280 280 275 273 272 272 270
213 206 210 201 203 204 200 193 191 186 195 215 231 219 212 205 170 147 55 35 350 330 312 305 304 311 311 313 317 317 316 315 316 317 312 314 312 307 306 307 305 301 302 299 298 296 296 295 293 289 285 280 278 277 276 275 273 272 269 267 263 263
213 216 216 213 209 203 211 218 224 225 231 227 236 239 274 248 100 350 9 350 334 305 294 292 294 292 300 304 307 309 307 307 305 308 311 311 308 306 304 304 303 305 304 298 295 298 296 292 287 287 285 287 285 281 280 280 278 278 275 268 265 263
217 219 218 226 215 216 219 220 223 224 222 247 255 295 277 45 336 21 351 347 329 323 320 314 309 310 311 312 311 308 307 306 307 306 305 304 301 300 301 301 301 301 301 303 302 297 294 290 288 279 282 283 282 282 279 278 276 272 270 274 276 272
222 222 223 226 220 215 210 208 213 217 219 229 235 243 262 114 4 18 6 339 326 329 325 322 317 317 315 310 308 305 306 306 308 309 306 303 302 301 301 299 299 299 297 297 297 297 295 290 287 288 289 289 287 285 284 280 278 276 273 268 266 269
220 217 218 219 218 213 207 211 216 207 220 218 215 232 155 96 77 39 345 320 322 324 321 313 311 310 305 309 303 303 304 307 307 305 302 301 303 302 301 299 296 294 294 293 292 289 289 289 287 288 291 291 291 290 287 286 284 280 275 273 271 269
214 213 215 216 215 209 214 204 199 206 209 200 231 122 90 78 66 11 329 315 324 312 308 305 302 300 300 302 305 307 311 309 304 301 302 300 298 300 298 295 295 293 292 289 289 288 287 286 286 288 290 291 291 291 291 287 284 282 279 275 272 272
221 220 214 212 215 215 210 171 167 202 194 173 101 93 75 59 2 359 323 323 319 309 301 299 298 295 298 306 310 312 309 308 301 299 299 301 300 297 296 294 291 291 288 286 286 286 286 284 285 288 290 291 292 292 292 289 287 285 281 278 275 273
240 251 259 262 219 153 134 156 142 107 75 85 81 74 58 26 6 339 327 316 312 312 306 305 306 307 311 314 312 308 301 297 297 297 299 300 295 297 295 294 295 291 288 288 287 287 285 283 287 291 294 296 296 295 295 289 286 283 281 280 278 274
215 221 221 175 125 108 92 88 89 93 94 76 78 51 39 14 342 317 318 309 309 311 316 327 322 318 315 310 307 302 298 297 296 297 302 298 293 292 290 289 288 288 290 290 290 290 288 288 290 294 298 298 298 298 296 290 285 282 280 278 278 276
203 167 129 108 91 90 89 89 81 89 76 54 36 32 4 350 316 303 300 298 308 321 333 332 321 313 310 307 305 302 300 302 302 301 306 298 293 292 290 289 288 288 290 291 292 291 289 289 293 298 299 300 300 301 298 294 287 279 277 273 271 272
121 127 120 110 91 97 100 91 95 84 58 31 14 4 334 321 293 293 295 299 321 324 326 320 314 308 307 307 302 301 301 302 298 296 300 293 295 292 290 291 290 286 285 288 292 293 294 293 297 300 302 301 299 297 295 293 289 284 281 279 276 275
142 130 113 110 106 113 102 88 73 59 38 19 357 336 302 291 283 296 305 310 318 319 319 314 310 305 304 301 298 299 298 299 296 294 294 287 286 286 289 288 286 285 281 280 285 291 291 292 295 297 298 297 296 295 289 287 283 282 280 282 281 276
119 104 107 111 118 108 80 71 68 64 44 357 321 296 279 274 291 318 321 315 316 316 312 308 303 297 297 295 294 292 289 292 293 292 292 288 284 285 286 284 282 282 282 282 278 277 278 282 285 291 297 297 296 296 294 285 282 282 286 287 288 290
115 119 117 112 108 93 82 71 66 43 32 331 309 278 283 310 330 322 316 314 308 304 300 295 290 294 289 282 287 289 289 288 288 291 290 289 289 283 282 281 278 276 277 276 271 271 274 274 284 290 296 297 298 297 295 288 282 283 280 276 274 267
107 102 91 80 83 83 69 69 56 33 3 323 292 288 321 337 324 321 313 306 303 295 291 289 289 283 284 285 283 286 286 283 282 283 287 287 287 287 285 285 283 281 281 279 273 272 275 280 288 293 296 297 296 295 294 292 287 285 283 279 275 279
104 93 93 74 76 73 74 70 55 24 337 303 293 325 333 329 324 313 307 303 299 296 294 294 290 289 285 283 282 282 287 288 287 285 284 285 287 286 286 286 284 284 286 285 281 279 277 277 279 289 292 293 295 294 291 289 289 289 289 290 290 290
101 96 84 83 77 78 67 73 42 345 317 294 314 330 325 319 310 306 303 300 298 299 298 296 292 285 282 282 284 281 284 290 290 288 287 287 289 291 291 289 289 290 289 291 289 278 276 276 277 282 287 290 290 290 290 289 288 288 283 279 276 280
125 122 107 97 83 81 80 65 36 324 300 298 339 321 318 312 308 306 302 300 300 300 300 298 292 289 283 278 280 289 292 291 291 294 294 293 292 290 289 290 291 290 291 292 290 289 279 271 267 269 275 282 286 289 290 289 287 286 285 283 277 270
107 109 115 45 84 83 72 54 21 305 285 308 320 309 307 308 309 306 303 303 302 302 304 303 298 286 282 284 281 279 284 289 297 296 297 295 290 289 288 290 290 287 287 286 284 282 281 276 271 270 270 267 271 272 275 278 281 281 281 279 278 279
84 65 93 93 156 90 35 354 282 264 286 297 300 306 304 304 302 300 302 304 304 303 303 299 301 302 297 292 290 284 284 289 288 291 293 292 290 288 286 286 288 288 284 281 281 281 279 278 274 271 270 267 266 261 260 265 264 266 271 276 275 274
121 229 271 271 205 21 302 295 281 278 283 288 293 297 302 299 296 299 302 303 303 301 301 297 295 298 301 299 297 298 294 282 283 289 288 289 286 287 286 285 286 284 283 283 282 282 282 278 271 269 279 280 270 267 265 256 255 255 247 256 263 263
230 225 218 262 254 287 302 287 284 285 291 294 298 298 302 296 293 293 296 297 301 300 297 294 297 298 299 299 294 277 276 291 294 285 277 261 257 268 277 280 281 280 283 284 291 296 293 287 282 274 290 292 297 298 295 289 280 264 254 245 250 255
167 194 257 276 275 285 293 291 287 290 292 295 291 293 294 296 299 300 299 301 302 300 300 299 298 297 297 295 297 298 284 270 292 291 289 289 288 290 292 293 292 292 293 292 284 282 292 296 295 300 303 304 299 295 294 293 293 291 289 289 288 288
157 273 289 279 289 297 291 290 288 291 290 284 284 285 285 292 300 301 302 309 305 305 304 304 301 299 297 295 297 295 298 301 286 286 290 291 294 296 297 297 297 298 300 300 300 299 299 299 301 303 302 298 297 299 301 301 300 298 296 295 293 286
275 268 273 286 294 294 292 290 286 285 282 280 278 277 276 282 289 302 305 305 303 304 302 299 299 300 300 300 297 298 302 302 303 295 289 295 300 301 300 300 300 302 303 303 303 304 303 302 302 300 297 299 303 306 307 306 304 302 301 297 296 293
234 255 286 295 295 294 292 287 285 282 278 276 275 276 278 279 284 295 300 299 300 301 301 301 301 300 301 302 304 303 303 303 303 303 306 304 304 306 304 303 303 305 306 306 307 307 305 306 306 304 304 305 307 309 309 308 307 308 306 304 301 284
343 306 293 292 286 283 285 282 281 279 276 274 273 274 276 285 286 286 292 298 300 302 301 301 300 301 300 297 298 297 300 297 295 296 299 307 312 316 313 310 310 309 311 310 310 310 310 309 309 309 307 306 307 307 309 309 309 310 307 304 296 284
320 300 286 287 290 287 282 277 277 275 272 273 276 284 287 288 292 292 290 293 298 291 294 296 297 298 296 297 297 299 298 295 296 298 301 304 307 308 308 308 313 314 316 315 313 312 313 312 310 308 307 307 307 308 309 313 313 307 302 302 291 282
303 287 284 281 277 277 277 275 277 276 272 275 278 283 287 290 294 294 293 295 297 295 290 293 294 293 295 295 294 296 296 298 298 299 298 299 297 298 300 302 304 304 308 312 314 314 313 314 314 312 311 310 311 312 315 313 304 297 292 286 284 282